Location: Newark
(37.0133°S, 81.3511°E)
Time: 20:34:21
(UTC+00:00)

ISS - Visible Passes

Search period start: 25 January 2020 00:00
Search period end: 04 February 2020 00:00
Orbit: 416 x 423 km, 51.6° (Epoch: 26 January)

Date Brightness Start Highest point End Pass type
(mag) Time Alt. Az. Time Alt. Az. Time Alt. Az.
25 Jan -1.4 21:59:16 14° NNE 22:00:21 16° NE 22:02:28 10° E visible
26 Jan -3.8 22:46:49 17° NW 22:49:20 84° SW 22:52:46 10° SE visible
27 Jan -3.3 22:01:18 45° N 22:01:53 51° NE 22:05:12 10° ESE visible
28 Jan -1.6 21:15:44 21° E 21:15:44 21° E 21:17:25 10° ESE visible
28 Jan -2.3 22:48:41 13° W 22:51:13 29° SSW 22:54:16 10° SSE visible
29 Jan -3.2 22:03:03 42° WSW 22:03:36 46° SW 22:06:55 10° SE visible
30 Jan -2.1 21:17:21 35° SE 21:17:21 35° SE 21:19:27 10° SE visible
30 Jan -1.2 22:51:20 10° WSW 22:53:18 14° SSW 22:55:17 10° SSE visible
31 Jan -0.4 20:31:36 12° ESE 20:31:36 12° ESE 20:31:51 10° ESE visible
31 Jan -1.7 22:04:33 18° SW 22:05:32 20° SSW 22:08:08 10° SSE visible
01 Feb -1.7 21:18:46 25° S 21:18:46 25° S 21:20:52 10° SSE visible
02 Feb -0.5 20:32:56 14° SE 20:32:56 14° SE 20:33:29 10° SE visible
02 Feb -0.9 22:06:36 10° SW 22:07:40 11° SSW 22:08:44 10° S visible
03 Feb -1.0 21:20:01 14° SSW 21:20:01 14° SSW 21:21:48 10° SSE visible
